RESOURCESAT-2A (41877 NORAD) Tracking and Keplerian Element Data

This shows tracking and keplerian element data for the satellite.

Feedback or suggestion? Click here.




ElementValue
Catalog41877
NameRESOURCESAT-2A
Epoch Orbit40729
Epoch Day286.82364661
Epoch Year2024
RAAN357.8462
Inclination98.6353
Eccentricity0.0001764
Argument of Perigee56.0594
Mean Anonmoly304.0751
Mean Motion14.21663198
Decay Rate9.97E-06
L11 41877U 16074A 24286.82364661 .00000997 00000+0 47368-3 0 9998
L22 41877 98.6353 357.8462 0001764 56.0594 304.0751 14.21663198407298



Live tracking and technical data element details for RESOURCESAT-2A (NORAD 41877). RESOURCESAT-2A can be tracked NOW for your location showing map with azimuth and elevation plus other details from your city location.







IsCatalogInMostPopularTable: catalog: 41877, numindb: 598
Update: records affected: 1



GetName: 41877 RESOURCESAT-2A

Hit Count: updated at: Tue, 03 Dec 2024 03:07:23 GMT